Location: Malvern Link
(52.1333°N, 2.3000°W)
Time: 00:35:22
(UTC+00:00)

QB50P2 - Pass Details

Date: 30 June 2022
Orbit: 590 x 605 km, 97.9° (Epoch: 15 August)

Event Time Altitude Azimuth Distance (km) Brightness Sun altitude
Rises 01:29:03 0° 16° (NNE) 2,861 ? -12.9°
Reaches altitude 10° 01:31:16 10° 20° (NNE) 1,955 ? -12.8°
Maximum altitude 01:35:28 61° 101° (E) 688 ? -12.5°
Enters shadow 01:38:39 17° 180° (S) 1,544 ? -12.4°
